EWG12 EDAH-EDAH

Flight info

Callsign EWG12
Flight time 0h 18m
Altitude
Route
Aircraft A320

Departure

Time 2026-04-11 20:39
Airport Heringsdorf Airport (EDAH)

Arrival

Time 2026-04-11 20:57
Airport Heringsdorf Airport (EDAH)
Time Latitude Longitude Altitude Speed Heading
2026-04-11 20:38 53.90494 14.03742 1021 ft 120 kts 138°
2026-04-11 20:39 53.89911 14.04710 1055 ft 114 kts 136°
2026-04-11 20:39 53.89465 14.05737 1046 ft 109 kts 120°
2026-04-11 20:39 53.89231 14.06997 898 ft 114 kts 108°
2026-04-11 20:39 53.89021 14.08311 717 ft 117 kts 108°
2026-04-11 20:40 53.88781 14.09638 533 ft 119 kts 105°
2026-04-11 20:40 53.88563 14.11012 408 ft 122 kts 106°
2026-04-11 20:40 53.88337 14.12390 277 ft 120 kts 104°
2026-04-11 20:40 53.88112 14.13753 103 ft 118 kts 104°
2026-04-11 20:41 53.87917 14.14952 85 ft 93 kts 105°
2026-04-11 20:41 53.87809 14.15620 76 ft 87 kts 106°
2026-04-11 20:41 53.87579 14.17079 355 ft 157 kts 103°
2026-04-11 20:41 53.87329 14.18917 1299 ft 162 kts 107°
2026-04-11 20:42 53.87330 14.20857 1451 ft 172 kts 77°
2026-04-11 20:42 53.88096 14.22462 1469 ft 185 kts 38°
2026-04-11 20:42 53.89368 14.22968 1480 ft 196 kts 357°
2026-04-11 20:42 53.90616 14.22085 1519 ft 198 kts 317°
2026-04-11 20:43 53.91339 14.20165 1559 ft 193 kts 285°
2026-04-11 20:43 53.91755 14.18036 1526 ft 191 kts 281°
2026-04-11 20:43 53.92073 14.15845 1522 ft 191 kts 276°
2026-04-11 20:43 53.92303 14.13602 1508 ft 190 kts 272°
2026-04-11 20:44 53.92439 14.11412 1501 ft 189 kts 270°
2026-04-11 20:44 53.92651 14.09187 1504 ft 192 kts 277°
2026-04-11 20:44 53.92955 14.06986 1515 ft 191 kts 277°
2026-04-11 20:44 53.93194 14.04791 1474 ft 188 kts 269°
2026-04-11 20:45 53.93028 14.02673 1415 ft 178 kts 241°
2026-04-11 20:45 53.92311 14.01096 1310 ft 164 kts 207°
2026-04-11 20:45 53.91271 14.00559 1241 ft 153 kts 174°
2026-04-11 20:45 53.90382 14.01151 1138 ft 132 kts 134°
2026-04-11 20:46 53.89998 14.02553 1032 ft 132 kts 112°
2026-04-11 20:46 53.89737 14.04025 957 ft 128 kts 111°
2026-04-11 20:46 53.89508 14.05400 983 ft 114 kts 111°
2026-04-11 20:47 53.89061 14.07933 756 ft 116 kts 104°
2026-04-11 20:47 53.88852 14.09242 634 ft 115 kts 109°
2026-04-11 20:47 53.88634 14.10543 479 ft 115 kts 104°
2026-04-11 20:47 53.88420 14.11859 321 ft 117 kts 105°
2026-04-11 20:48 53.88209 14.13174 169 ft 118 kts 103°
2026-04-11 20:48 53.88006 14.14434 76 ft 100 kts 108°
2026-04-11 20:48 53.87836 14.15446 81 ft 81 kts 107°
2026-04-11 20:48 53.87650 14.16636 163 ft 142 kts 103°
2026-04-11 20:49 53.87406 14.18385 1045 ft 159 kts 106°
2026-04-11 20:49 53.87318 14.20351 1364 ft 177 kts 82°
2026-04-11 20:49 53.88030 14.22096 1440 ft 191 kts 41°
2026-04-11 20:49 53.89331 14.22698 1523 ft 203 kts 358°
2026-04-11 20:50 53.90619 14.21735 1606 ft 206 kts 315°
2026-04-11 20:50 53.91289 14.19663 1694 ft 200 kts 280°
2026-04-11 20:50 53.91636 14.17371 1616 ft 200 kts 279°
2026-04-11 20:50 53.92009 14.15099 1517 ft 201 kts 282°
2026-04-11 20:51 53.92426 14.12837 1483 ft 200 kts 282°
2026-04-11 20:51 53.92820 14.10571 1484 ft 200 kts 282°
2026-04-11 20:51 53.93202 14.08295 1500 ft 201 kts 281°
2026-04-11 20:51 53.93569 14.06047 1503 ft 199 kts 281°
2026-04-11 20:52 53.93934 14.03774 1530 ft 198 kts 280°
2026-04-11 20:52 53.94318 14.01519 1512 ft 199 kts 282°
2026-04-11 20:52 53.94719 13.99271 1486 ft 198 kts 277°
2026-04-11 20:52 53.94757 13.97078 1457 ft 172 kts 249°
2026-04-11 20:53 53.94183 13.95582 1417 ft 139 kts 204°
2026-04-11 20:53 53.93335 13.95265 1349 ft 119 kts 163°
2026-04-11 20:53 53.92677 13.96007 1288 ft 119 kts 133°
2026-04-11 20:53 53.92166 13.97167 1278 ft 126 kts 128°
2026-04-11 20:54 53.91667 13.98365 1362 ft 123 kts 128°
2026-04-11 20:54 53.91205 13.99621 1308 ft 130 kts 123°
2026-04-11 20:54 53.90772 14.01010 1145 ft 131 kts 122°
2026-04-11 20:54 53.90361 14.02330 998 ft 122 kts 122°
2026-04-11 20:55 53.89930 14.03524 927 ft 119 kts 124°
2026-04-11 20:55 53.89568 14.04794 867 ft 122 kts 110°
2026-04-11 20:55 53.89414 14.06151 871 ft 111 kts 109°
2026-04-11 20:55 53.89159 14.07371 789 ft 107 kts 113°
2026-04-11 20:56 53.88973 14.08618 673 ft 112 kts 103°
2026-04-11 20:56 53.88744 14.09894 556 ft 114 kts 110°
2026-04-11 20:56 53.88519 14.11215 413 ft 117 kts 103°
2026-04-11 20:56 53.88308 14.12541 250 ft 116 kts 104°
2026-04-11 20:57 53.88103 14.13818 97 ft 109 kts 103°
2026-04-11 20:57 53.87927 14.14897 84 ft 74 kts 105°
2026-04-11 20:57 53.87863 14.15285 81 ft 21 kts 109°
2026-04-11 20:57 53.87823 14.15507 80 ft 22 kts 104°
2026-04-11 20:58 53.87768 14.15861 76 ft 38 kts 105°
2026-04-11 20:58 53.87695 14.16306 71 ft 37 kts 106°
2026-04-11 20:58 53.87629 14.16693 67 ft 26 kts 105°
2026-04-11 20:58 53.87694 14.16821 70 ft 17 kts 327°
2026-04-11 20:59 53.87739 14.16635 75 ft 17 kts 285°
2026-04-11 20:59 53.87772 14.16440 77 ft 17 kts 285°
2026-04-11 20:59 53.87804 14.16242 66 ft 18 kts 285°
2026-04-11 20:59 53.87838 14.16043 73 ft 17 kts 285°
2026-04-11 21:00 53.87877 14.15815 71 ft 24 kts 283°
2026-04-11 21:00 53.87930 14.15491 84 ft 31 kts 285°
2026-04-11 21:00 53.87993 14.15113 84 ft 35 kts 286°
2026-04-11 21:00 53.88053 14.14737 80 ft 31 kts 285°
2026-04-11 21:01 53.88117 14.14363 79 ft 35 kts 287°
2026-04-11 21:01 53.88164 14.14069 84 ft 0 kts 286°
2026-04-11 21:02 53.88171 14.14025 81 ft 12 kts 284°
2026-04-11 21:02 53.88122 14.13891 81 ft 16 kts 199°
2026-04-11 21:03 53.88005 14.13889 79 ft 16 kts 176°
2026-04-11 21:03 53.87939 14.13945 84 ft 10 kts 125°
2026-04-11 21:03 53.87899 14.14061 84 ft 12 kts 122°
2026-04-11 21:03 53.87869 14.14050 81 ft 5 kts 222°
2026-04-11 21:04 53.87870 14.14006 81 ft 3 kts 309°
2026-04-11 21:04 53.87878 14.13994 83 ft 0 kts 317°
2026-04-11 21:04 53.87878 14.13993 83 ft 0 kts 317°
2026-04-11 21:04 53.87884 14.13985 82 ft 2 kts 317°
2026-04-11 21:05 53.87898 14.13961 83 ft 4 kts 317°
2026-04-11 21:05 53.87900 14.13959 83 ft 0 kts 317°